RH
88 90 100 100 90 80 70 74 71 65 53 55 46 61 71 73 61 49 39 36 40 35 37 39 38 32 25 22 16 18 16 17 21 23 27 50 80 79 79 87 88 68 74 90 93 87 83
78 92 100 100 99 84 86 97 89 69 59 64 56 62 86 94 76 59 61 40 38 33 31 33 31 30 30 30 30 28 26 19 17 18 21 19 17 31 43 32 29 37 46 56 69 65 58
100 100 100 99 100 94 92 94 100 100 84 79 63 69 99 100 65 40 42 41 42 40 30 32 30 25 25 23 25 26 28 32 29 28 28 26 25 26 25 28 24 28 45 35 33 36 33
100 100 100 100 83 95 100 98 94 93 78 84 70 69 80 83 66 48 31 46 47 44 33 29 32 29 30 33 29 29 30 30 32 34 34 34 38 34 31 31 43 78 64 100 72 46 43
100 100 100 100 100 100 100 91 72 83 85 66 60 48 59 46 34 32 36 49 53 45 45 37 34 38 38 40 38 39 38 37 36 38 43 40 38 36 36 42 47 47 64 78 92 95 78
100 100 100 100 100 100 100 100 80 95 96 80 57 51 51 46 33 32 37 50 62 55 53 42 40 42 42 42 44 43 45 46 44 46 47 47 43 39 43 48 39 47 42 51 61 88 100
100 100 100 100 100 100 100 100 71 72 92 79 62 44 29 27 29 38 52 62 70 79 83 60 53 50 55 53 45 48 49 45 40 47 48 45 43 47 60 58 54 48 40 39 46 52 60
100 100 100 100 100 100 100 90 58 68 66 77 72 43 25 27 30 32 38 47 55 60 66 55 55 53 48 47 41 40 43 44 48 53 56 57 55 52 54 53 56 60 50 46 46 42 48
100 100 100 96 70 99 99 98 77 64 52 67 62 64 26 29 32 43 41 39 35 38 48 54 47 57 62 43 43 46 49 55 59 61 68 76 75 69 65 62 65 60 61 59 46 54 40
72 100 100 59 62 80 98 97 99 54 47 53 54 68 46 30 26 28 34 35 42 42 45 50 52 50 46 44 45 47 48 48 56 63 65 63 56 70 73 61 51 46 50 40 51 54 36
100 100 97 80 92 80 95 93 95 68 53 48 48 28 28 23 23 25 26 28 30 42 59 64 50 53 62 70 68 52 45 42 40 47 54 46 39 33 34 34 36 33 37 36 30 30 34
100 99 94 100 91 72 95 100 96 74 64 52 41 27 28 25 26 26 26 32 42 54 48 41 46 66 87 84 68 56 56 54 52 42 32 24 24 22 23 23 21 21 22 27 33 32 29
90 95 100 98 68 99 100 99 91 86 87 52 34 29 28 26 28 30 32 63 75 83 58 44 48 73 72 68 57 51 38 37 38 25 20 18 14 14 13 13 12 14 15 14 17 22 25
100 100 91 75 65 85 80 85 99 100 81 52 30 28 27 30 36 31 31 52 69 56 50 50 68 69 60 61 54 45 27 19 17 13 9 8 10 8 7 6 7 9 9 10 11 14 16
81 61 52 63 82 75 79 84 97 83 50 31 28 25 25 25 29 32 56 76 50 51 53 57 53 45 52 41 23 14 11 10 8 6 6 6 7 6 5 6 5 8 9 9 9 10 11
59 70 87 95 82 70 76 87 66 59 39 30 23 25 26 26 30 53 70 50 50 52 59 63 53 45 23 15 10 7 6 5 5 5 5 5 7 7 7 6 6 7 8 8 9 8 9
63 71 83 80 61 55 66 62 58 40 33 22 23 23 27 28 64 72 57 53 60 61 52 50 50 20 13 8 6 6 5 5 6 6 6 6 6 9 8 7 8 6 9 9 9 8 9
80 85 72 48 61 72 64 53 35 30 24 25 20 28 28 53 85 52 54 66 75 61 66 52 22 13 8 6 5 6 5 6 5 6 6 6 6 9 10 8 8 9 9 10 11 10 10
89 83 62 70 80 69 60 40 30 31 27 20 23 29 55 82 55 56 70 65 67 72 52 24 12 7 6 5 5 6 6 6 7 6 7 10 10 9 12 10 9 9 10 10 9 12 12
83 75 85 92 81 71 50 43 34 26 20 21 26 45 66 51 61 66 66 80 72 49 27 12 8 6 5 6 6 6 7 7 7 7 8 10 10 9 11 9 6 7 8 8 7 8 10
70 91 100 78 61 47 43 30 29 21 20 23 32 58 52 58 71 79 80 70 68 37 14 8 6 6 6 6 7 6 7 6 7 7 8 9 11 9 6 8 8 10 8 9 8 8 9
100 98 91 78 54 43 33 33 23 21 24 28 55 96 62 65 90 67 75 76 59 19 8 7 6 8 6 6 6 7 8 7 8 8 8 9 10 8 7 9 12 11 10 10 11 11 10
96 89 94 57 41 34 36 24 22 25 27 50 91 54 75 93 84 67 77 81 22 11 8 6 7 7 7 7 7 7 8 8 9 9 10 10 9 9 9 10 10 11 11 11 12 12 12
95 77 54 43 37 32 30 22 23 28 38 74 54 58 84 87 78 72 89 43 14 9 7 7 7 7 7 8 8 8 9 9 9 10 10 10 10 11 11 11 10 11 13 13 13 14 14
75 54 45 33 33 39 23 25 28 34 74 61 48 83 92 93 78 70 72 17 10 9 8 8 8 8 8 9 10 9 9 9 10 10 9 10 11 12 13 13 12 12 12 12 13 14 16
57 48 34 40 40 28 24 34 33 64 56 56 66 100 100 100 62 67 36 13 10 8 10 10 9 9 8 9 10 10 10 10 10 11 10 12 13 14 15 15 14 13 13 13 14 16 16
54 41 38 45 42 32 28 34 45 74 59 60 59 98 99 72 75 59 22 13 11 9 11 13 12 11 10 9 10 10 10 10 12 12 11 10 13 17 16 18 18 15 14 14 14 15 15
52 38 48 63 36 40 38 51 49 49 77 53 84 100 85 74 93 49 16 12 10 10 11 12 12 12 10 11 12 12 12 11 12 13 14 12 11 13 16 20 22 19 16 15 16 16 17
43 52 67 47 34 42 63 64 40 59 57 73 100 100 80 100 69 38 16 13 10 12 13 12 12 11 10 10 11 12 12 13 12 13 14 16 14 14 14 16 20 22 23 21 18 15 15
Wind_Speed
17 18 23 28 32 34 35 36 35 36 35 34 37 40 39 38 42 44 42 39 33 27 27 27 31 34 38 37 42 45 50 56 62 67 69 72 74 73 69 70 74 76 78 77 79 80 79
20 23 24 31 31 33 35 35 36 37 36 36 36 36 42 41 46 46 46 45 42 37 27 29 32 36 40 42 46 48 49 48 53 55 59 64 70 73 73 72 73 72 72 71 73 75 74
25 27 30 29 33 36 36 37 39 38 40 39 39 39 41 41 46 48 47 45 45 41 37 37 38 38 40 39 39 46 50 52 55 55 56 58 58 61 66 70 73 72 72 71 65 64 66
32 34 33 29 30 35 37 41 41 39 39 40 40 41 41 47 49 48 45 46 43 43 43 44 47 49 49 50 50 50 50 49 51 52 55 59 63 65 64 65 66 66 64 67 72 75 74
32 35 33 29 31 34 39 41 42 44 41 41 43 44 44 50 49 47 45 47 45 47 50 53 52 56 55 55 59 60 61 60 60 60 61 64 65 65 66 66 65 66 70 74 72 73 80
37 38 34 27 30 33 42 46 44 42 42 43 46 46 49 53 49 50 52 51 52 55 58 56 55 61 62 64 63 64 65 67 70 73 72 71 73 73 73 78 72 76 75 73 75 77 80
44 41 35 37 39 38 47 49 47 47 47 46 48 50 53 50 47 50 52 54 58 60 64 63 64 64 65 65 64 67 68 72 73 74 78 82 83 80 84 86 88 89 85 80 81 82 83
40 34 33 33 39 49 51 48 44 47 49 50 51 52 51 51 50 52 53 57 59 62 65 63 68 71 71 71 75 73 74 78 81 83 86 87 85 90 92 94 96 96 96 89 93 92 93
33 39 33 37 44 48 49 46 47 47 47 52 53 54 54 54 57 60 61 61 63 69 72 72 73 77 81 77 78 82 84 86 87 89 91 94 97 101 102 105 107 107 108 103 104 103 101
32 40 40 46 50 48 50 46 47 48 51 51 54 59 58 64 66 68 68 67 70 71 77 76 79 82 86 90 90 93 94 92 96 99 105 110 111 112 113 114 115 118 117 118 114 114 109
34 34 41 47 47 49 46 46 48 52 55 56 59 57 62 66 70 71 70 71 75 81 92 85 87 93 94 96 100 101 103 106 108 111 117 118 118 122 123 123 125 128 126 127 127 126 125
36 41 43 44 43 48 47 48 50 55 58 58 62 63 68 74 73 78 76 79 83 90 92 94 98 104 109 112 115 114 114 118 121 122 126 124 122 126 126 129 132 132 132 133 134 134 137
36 38 39 39 44 45 48 50 55 59 61 63 65 64 72 78 81 83 81 87 92 98 102 100 108 115 118 121 123 128 128 130 129 128 128 124 120 116 115 115 118 123 122 122 126 134 137
38 37 42 45 47 49 51 54 58 60 64 69 70 76 84 82 83 86 93 95 99 104 103 107 116 122 129 134 134 135 134 130 127 122 115 106 102 106 106 100 99 104 106 110 114 117 120
42 44 46 47 49 49 53 56 59 62 67 69 76 80 83 85 88 91 96 100 109 109 112 118 124 128 136 137 135 126 121 117 112 107 100 94 86 89 95 95 86 87 96 100 101 101 106
41 42 46 46 48 52 54 58 61 65 69 75 78 84 83 87 95 98 106 114 116 116 124 131 137 138 134 128 121 114 107 102 96 93 87 81 70 76 82 82 81 78 82 88 94 95 95
44 44 45 48 52 55 56 60 63 67 73 76 83 89 89 92 98 103 114 115 121 128 133 140 143 139 131 119 110 106 100 92 85 82 77 72 65 65 72 76 71 72 70 77 81 87 90
45 47 48 52 52 54 57 62 65 71 76 87 95 91 95 97 104 110 126 123 128 134 144 147 141 133 121 109 99 94 90 83 77 72 68 68 59 59 65 70 64 67 68 70 75 77 84
46 49 50 51 53 56 60 64 66 77 85 90 89 90 97 105 107 116 130 131 138 142 149 143 133 119 109 99 87 86 81 76 70 66 59 60 58 55 59 61 60 60 68 70 69 72 77
48 48 50 52 55 59 64 69 77 81 87 89 93 98 105 108 115 127 130 136 143 147 147 134 120 108 99 92 86 77 72 68 65 60 56 53 54 52 53 56 53 51 58 64 66 66 71
46 48 51 53 58 62 68 75 81 87 91 89 98 100 113 115 122 136 138 144 153 149 135 122 108 101 93 84 80 74 68 64 62 56 52 49 52 51 49 44 46 47 49 55 58 59 64
46 50 51 58 62 67 72 80 86 93 95 97 102 107 116 125 128 134 143 149 155 141 122 110 100 88 85 79 75 67 62 60 58 57 52 48 50 48 44 39 40 44 46 48 49 54 58
50 52 56 61 66 72 74 84 89 92 97 101 105 115 118 122 133 138 146 154 145 126 113 103 93 84 80 76 73 65 58 56 54 51 50 48 45 43 40 39 38 41 42 46 47 50 55
50 54 61 65 71 72 80 86 92 94 99 104 114 117 118 131 136 143 152 153 131 115 104 94 87 81 75 69 67 58 56 54 51 49 47 44 41 39 38 38 37 37 39 43 47 47 50
52 59 64 68 72 78 86 86 96 99 102 110 118 117 128 134 138 147 154 138 118 109 97 91 85 78 70 64 61 58 51 48 47 46 44 39 37 36 35 34 35 35 38 40 44 47 48
57 63 65 70 76 83 87 92 93 99 105 113 120 124 132 140 143 149 146 122 106 99 95 92 84 73 64 60 56 52 51 48 47 44 40 35 36 34 34 33 32 32 34 37 40 45 47
62 66 69 72 81 85 90 97 98 101 111 120 123 130 138 138 147 152 137 118 104 93 86 81 77 71 64 59 54 50 46 45 44 44 43 35 29 31 32 31 32 32 31 32 36 41 44
67 67 72 77 85 87 94 98 102 109 114 123 124 133 142 142 151 149 129 109 102 89 85 81 75 68 59 53 51 48 47 46 45 41 39 38 33 29 27 28 28 32 30 29 31 35 39
65 69 76 82 86 92 95 99 106 110 115 125 129 134 144 148 150 144 119 104 96 87 80 75 70 65 60 57 54 51 48 46 45 42 38 34 33 31 29 26 25 26 27 29 30 31 33
Wind_Direction
319 328 353 350 346 345 346 349 347 347 348 346 347 349 347 345 346 343 339 338 333 321 313 301 299 298 298 294 285 283 279 276 277 277 272 269 266 263 266 268 267 264 263 260 263 267 269
307 318 331 343 337 339 342 339 341 339 342 343 338 336 337 337 336 336 334 333 332 324 316 305 302 298 295 292 288 292 290 285 276 276 276 274 272 269 269 272 272 269 270 270 270 270 270
295 311 322 331 329 329 335 336 334 332 334 334 336 336 334 331 332 330 330 328 325 322 320 317 310 305 304 305 301 293 287 286 287 287 284 282 283 282 278 272 270 270 270 268 267 265 262
298 300 311 321 325 329 332 333 333 331 331 332 332 330 328 327 326 325 326 324 322 321 322 321 319 316 309 306 301 299 295 294 282 279 282 285 283 281 277 278 277 273 271 268 263 260 262
292 296 309 320 318 327 327 329 329 329 329 330 329 330 326 327 324 322 322 321 317 318 320 320 316 313 311 307 305 301 296 295 289 284 285 284 279 275 274 273 270 270 269 267 267 264 265
292 297 306 317 312 313 321 324 324 325 322 327 329 324 323 324 321 319 318 318 320 319 319 315 314 309 311 308 303 298 293 291 290 285 281 280 278 277 276 273 268 266 263 263 264 265 265
297 299 311 309 305 302 311 319 321 323 319 322 324 323 324 323 322 318 317 317 315 315 314 313 311 310 308 301 302 295 290 291 289 284 283 283 281 278 274 273 272 271 266 260 259 259 258
295 302 303 307 304 301 308 312 320 322 320 320 320 321 323 321 321 319 316 314 313 313 311 316 314 313 307 299 298 297 293 291 290 287 282 281 281 276 272 271 271 271 269 266 262 257 254
297 294 297 294 294 299 305 308 315 319 318 318 316 317 318 319 320 322 318 315 315 315 315 315 314 309 308 303 299 298 292 288 284 283 283 282 281 279 277 269 266 265 267 266 261 260 255
281 293 293 293 288 298 304 309 311 314 315 313 313 315 314 316 319 321 316 314 314 314 313 309 310 309 307 302 298 295 291 288 287 288 287 285 282 278 279 276 269 260 260 258 259 259 255
291 287 284 287 291 295 300 308 310 313 313 314 314 315 313 313 319 319 313 311 314 316 316 314 311 313 311 308 304 300 296 289 288 288 287 282 277 272 269 268 268 264 259 257 254 253 255
277 278 284 294 298 297 304 306 309 312 315 313 313 312 314 316 317 319 320 318 313 314 317 316 313 312 313 313 307 304 300 296 293 288 282 279 278 274 272 269 267 265 264 259 258 253 251
281 289 296 298 295 298 303 307 307 312 314 312 313 314 313 313 314 319 317 316 315 314 312 311 312 315 314 312 311 307 301 296 293 289 287 284 282 278 274 273 269 265 264 262 259 257 257
288 292 292 294 295 300 304 305 308 310 311 312 314 315 315 313 315 317 316 317 316 313 314 314 313 313 313 312 309 304 300 297 295 292 289 286 285 282 278 270 267 267 263 261 258 257 256
288 294 298 298 299 301 302 306 309 311 312 316 317 316 314 319 318 316 315 318 318 317 316 318 317 316 313 308 304 301 299 296 295 292 290 287 286 280 277 275 269 262 263 262 260 255 254
295 297 297 298 300 300 303 307 309 309 312 314 316 317 319 319 318 319 322 320 320 320 322 320 319 315 310 307 306 304 300 298 296 294 291 288 284 279 276 272 270 266 261 258 258 256 253
296 297 297 297 299 302 306 308 309 310 314 316 319 323 321 318 322 324 323 320 321 325 323 321 318 313 312 310 308 306 302 301 298 295 292 288 284 277 274 273 270 266 261 259 257 254 251
295 295 298 301 303 304 308 308 313 318 316 318 320 319 319 324 323 322 324 324 326 325 324 320 317 316 314 311 310 306 303 302 299 296 294 291 286 279 274 273 270 270 267 259 256 253 252
294 295 300 303 304 307 307 314 314 315 315 316 322 324 326 323 322 323 326 329 328 326 322 319 318 317 314 312 311 306 305 303 301 297 296 293 289 282 279 274 271 265 263 259 253 251 250
296 297 302 305 306 306 310 311 311 316 317 321 324 326 325 323 323 325 330 330 328 325 322 321 320 318 317 315 312 309 308 304 302 301 297 294 290 286 279 277 273 264 259 257 255 250 247
298 300 303 304 305 310 311 314 316 318 319 327 326 327 326 325 324 329 333 330 329 325 323 321 322 320 319 316 314 313 311 309 305 303 301 299 294 288 284 278 273 269 260 259 259 253 248
297 303 304 303 307 312 314 316 318 321 325 327 325 322 326 324 324 331 332 332 328 326 324 324 323 321 320 318 316 315 313 311 307 308 307 304 295 291 285 280 270 266 265 259 255 255 251
302 304 302 307 312 314 317 319 323 322 327 329 326 326 325 326 332 333 334 332 329 328 327 326 325 325 323 321 318 319 315 312 311 311 308 302 297 292 289 283 274 267 265 264 259 254 254
301 303 307 310 313 317 319 323 322 325 329 329 329 327 327 332 333 334 334 332 330 330 329 327 327 327 325 322 319 320 317 317 315 312 307 303 298 294 291 286 280 272 263 260 259 254 251
301 306 310 314 317 319 321 321 328 331 329 330 329 328 332 335 335 336 334 334 333 331 330 330 331 330 326 324 323 322 322 318 315 313 311 306 299 295 291 286 281 274 267 260 256 255 253
304 308 315 317 318 320 323 321 329 328 331 329 330 330 334 335 337 336 337 335 335 334 334 334 333 331 329 327 327 325 323 321 319 318 317 310 303 298 295 291 285 278 271 267 261 257 255
307 312 314 316 318 319 321 323 326 327 330 329 329 332 335 335 337 337 336 337 337 336 336 335 335 335 333 331 330 329 327 325 323 322 322 317 305 298 297 292 289 284 277 271 266 261 258
311 315 315 316 317 318 319 325 328 330 330 330 331 333 336 337 338 337 337 338 339 338 338 337 339 339 339 338 338 336 333 329 327 325 323 320 315 303 295 293 291 288 283 274 270 266 262
312 314 316 317 319 317 323 325 330 327 328 331 331 334 337 337 337 338 339 338 339 340 337 338 340 342 343 343 345 343 340 335 331 327 324 322 319 312 303 296 288 284 282 283 278 270 263